LMRST-SAT

导读

LMRST-SAT是一颗由美国研制发射的人造卫星,于2015年10月8日08:00发射升空。作为美国航天发射任务中的载荷,该卫星进入近地点约1013公里、远地点约1198公里,倾角63.43°的预定轨道,服务于美国航天相关领域的应用需求,是2015年美国航天发射活动的组成部分,助力相关航天技术验证或空间探测任务开展。

Basic Information
目录编号:
40971
目录名称:
LMRST-SAT
国际标识:
2015-058H
轨道中心:
EARTH
卫星名称:
LMRST-SAT
卫星全名:
--
卫星状态:
在轨 (已飞行3984 天)
发射日期:
2015-10-08 UTC
国别 :
美国 (US)
星等 :
--
Orbit Information
数据来源 国际轨道数据
星历时间: 2026-09-04T17:34:50+0800
11小时前
查看轨道信息
半长轴: 6973.088km
偏心率: 0.0138502
轨道倾角: 64.775°
近地点辐角 28.754°
升交点赤经 29.226°
平近点角 332.111°
近地点: 498.372km
远地点: 691.53km
周期: 96.582分钟
每日圈数: 14.90957
Detailed Information
使用方式:
暂无
2D Orbit Map
3D Orbit Map
Orbit Altitude Analysis Chart
Orbit Inclination Analysis Chart
Orbit Comprehensive Analysis Chart
View Comprehensive Chart
Conjunction Data List
Event ID Objects TCA Miss Dist (km) Collision Risk Probability Collision Risk Index (CRI) Action
CDM_260904-180504-097106-057524
HAWK-10C (60575)
2026-09-04T
18:05:53+0000
2.703 km
极远距离
1.159632E-6 低风险 0.36